Terminal Aerodrome Forecast
Issued by NWS Pittsburgh, PA

Current Version | Previous Version | Graphics & Text | Print | Product List | Glossary On
Versions: 1 2 3 4 5 6 7 8 9 10 11 12 13 14 15 16 17 18 19 20 21 22 23 24 25 26 27
000
FTUS41 KPBZ 231500 AAB
TAFPIT
TAF AMD
KPIT 231508Z 2315/2418 11005KT 6SM -DZ BR SCT007 BKN020
     FM231700 17010KT P6SM SCT020 BKN180
     FM240500 15008KT 5SM -SHRA BKN015=

USA.gov is the U.S. government's official web portal to all federal, state and local government web resources and services.